| time (UTC) | temp F | wind direction | speed knots | gust knots | rain 1hr in | rain 24hr in | rain mn in | humidity % | barometer mb |
| 20260505234522 | 83 | 25 | 1.7 | 8.7 | 0.00 | 0.00 | 0.00 | 36 | 1006.3 |
| 20260505233018 | 84 | 6 | 0.9 | 5.2 | 0.00 | 0.00 | 0.00 | 33 | 1005.9 |
| 20260505231522 | 84 | 349 | 0.9 | 4.3 | 0.00 | 0.00 | 0.00 | 31 | 1005.7 |
| 20260505230030 | 85 | 326 | 3.5 | 7.8 | 0.00 | 0.00 | 0.00 | 31 | 1006.1 |
| 20260505224527 | 86 | 328 | 1.7 | 7.0 | 0.00 | 0.00 | 0.00 | 31 | 1006.2 |
| 20260505223015 | 86 | 84 | 1.7 | 4.3 | 0.00 | 0.00 | 0.00 | 30 | 1005.9 |
| 20260505221520 | 88 | 352 | 0.9 | 4.3 | 0.00 | 0.00 | 0.00 | 30 | 1005.6 |
| 20260505220036 | 88 | 313 | 1.7 | 7.0 | 0.00 | 0.00 | 0.00 | 29 | 1005.1 |
| 20260505214532 | 89 | 59 | 0.9 | 6.1 | 0.00 | 0.00 | 0.00 | 28 | 1005.3 |
| 20260505213028 | 91 | 356 | 1.7 | 5.2 | 0.00 | 0.00 | 0.00 | 26 | 1005.3 |
| 20260505211518 | 94 | 285 | 1.7 | 6.1 | 0.00 | 0.00 | 0.00 | 19 | 1005.3 |
| 20260505210019 | 93 | 264 | 0.9 | 6.1 | 0.00 | 0.00 | 0.00 | 20 | 1005.5 |
| 20260505204526 | 94 | 260 | 0.9 | 5.2 | 0.00 | 0.00 | 0.00 | 18 | 1005.5 |
| 20260505203024 | 96 | 255 | 0.9 | 6.1 | 0.00 | 0.00 | 0.00 | 19 | 1005.6 |
| 20260505201526 | 95 | 223 | 1.7 | 7.0 | 0.00 | 0.00 | 0.00 | 22 | 1005.5 |
| 20260505200026 | 93 | 288 | 1.7 | 4.3 | 0.00 | 0.00 | 0.00 | 23 | 1006.0 |
| 20260505194533 | 93 | 283 | 3.5 | 7.8 | 0.00 | 0.00 | 0.00 | 22 | 1006.2 |
| 20260505193037 | 93 | 288 | 2.6 | 7.0 | 0.00 | 0.00 | 0.00 | 23 | 1006.3 |
| 20260505191537 | 92 | 245 | 2.6 | 6.1 | 0.00 | 0.00 | 0.00 | 26 | 1006.3 |
| 20260505190014 | 90 | 248 | 1.7 | 7.0 | 0.00 | 0.00 | 0.00 | 29 | 1006.6 |
| 20260505184529 | 90 | 290 | 2.6 | 10.4 | 0.00 | 0.00 | 0.00 | 28 | 1006.6 |
| 20260505183027 | 91 | 296 | 1.7 | 4.3 | 0.00 | 0.00 | 0.00 | 27 | 1006.9 |
| 20260505181505 | 90 | 176 | 0.9 | 3.5 | 0.00 | 0.00 | 0.00 | 35 | 1007.1 |
| 20260505180012 | 88 | 241 | 0.9 | 3.5 | 0.00 | 0.00 | 0.00 | 38 | 1007.3 |
| 20260505174529 | 88 | 257 | 0.9 | 5.2 | 0.00 | 0.00 | 0.00 | 40 | 1007.3 |
| 20260505173021 | 87 | 266 | 0.9 | 3.5 | 0.00 | 0.00 | 0.00 | 41 | 1007.2 |
| 20260505171533 | 86 | 242 | 0.9 | 1.7 | 0.00 | 0.00 | 0.00 | 46 | 1007.4 |
| 20260505170019 | 85 | 233 | 0.9 | 3.5 | 0.00 | 0.00 | 0.00 | 48 | 1007.4 |
| 20260505164527 | 84 | 251 | 0.9 | 3.5 | 0.00 | 0.00 | 0.00 | 49 | 1007.5 |
| 20260505163020 | 83 | 281 | 0.9 | 1.7 | 0.00 | 0.00 | 0.00 | 50 | 1007.4 |
| 20260505161528 | 81 | 212 | 1.7 | 3.5 | 0.00 | 0.00 | 0.00 | 54 | 1007.5 |
| 20260505153015 | 79 | 221 | 0.9 | 4.3 | 0.00 | 0.00 | 0.00 | 59 | 1007.3 |
| 20260505151517 | 78 | 245 | 1.7 | 4.3 | 0.00 | 0.00 | 0.00 | 57 | 1007.3 |
| 20260505124507 | 69 | 147 | 0.0 | 2.6 | 0.00 | 0.00 | 0.00 | 78 | 1005.8 |
| 20260505123007 | 69 | 233 | 0.0 | 1.7 | 0.00 | 0.00 | 0.00 | 79 | 1005.8 |
| 20260505121526 | 68 | 248 | 0.9 | 1.7 | 0.00 | 0.00 | 0.00 | 80 | 1005.6 |
| 20260505120030 | 67 | 236 | 0.0 | 2.6 | 0.00 | 0.00 | 0.00 | 81 | 1005.4 |
| 20260505114520 | 67 | 161 | 0.0 | 0.0 | 0.00 | 0.00 | 0.00 | 81 | 1005.4 |
| 20260505113002 | 67 | 167 | 0.9 | 2.6 | 0.00 | 0.00 | 0.00 | 81 | 1005.2 |
| 20260505111550 | 67 | 175 | 0.9 | 3.5 | 0.00 | 0.00 | 0.00 | 80 | 1005.2 |
| 20260505101504 | 68 | 159 | 0.9 | 3.5 | 0.00 | 0.00 | 0.00 | 78 | 1005.2 |
| 20260505100001 | 68 | 153 | 0.9 | 4.3 | 0.00 | 0.00 | 0.00 | 78 | 1005.2 |
| 20260505094501 | 69 | 148 | 0.9 | 5.2 | 0.00 | 0.00 | 0.00 | 77 | 1005.1 |
| 20260505093002 | 69 | 188 | 0.9 | 3.5 | 0.00 | 0.00 | 0.00 | 77 | 1004.9 |
| 20260505091500 | 69 | 198 | 0.0 | 4.3 | 0.00 | 0.00 | 0.00 | 76 | 1005.2 |
| 20260505090001 | 69 | 140 | 0.9 | 3.5 | 0.00 | 0.00 | 0.00 | 76 | 1005.2 |
| 20260505084510 | 70 | 219 | 0.9 | 2.6 | 0.00 | 0.00 | 0.00 | 75 | 1005.2 |
| 20260505083000 | 70 | 167 | 1.7 | 4.3 | 0.00 | 0.00 | 0.00 | 75 | 1005.4 |
| 20260505081502 | 70 | 231 | 0.9 | 3.5 | 0.00 | 0.00 | 0.00 | 74 | 1005.6 |
| 20260505080012 | 70 | 188 | 0.9 | 2.6 | 0.00 | 0.00 | 0.00 | 74 | 1005.7 |
| 20260505074504 | 71 | 212 | 0.0 | 2.6 | 0.00 | 0.00 | 0.00 | 73 | 1005.8 |
| 20260505073004 | 71 | 210 | 1.7 | 2.6 | 0.00 | 0.00 | 0.00 | 73 | 1006.0 |
| 20260505071502 | 71 | 256 | 0.0 | 3.5 | 0.00 | 0.00 | 0.00 | 72 | 1006.1 |
| 20260505070005 | 72 | 180 | 1.7 | 3.5 | 0.00 | 0.00 | 0.00 | 71 | 1006.1 |
| 20260505064504 | 72 | 172 | 0.9 | 3.5 | 0.00 | 0.00 | 0.00 | 70 | 1006.5 |
| 20260505063004 | 73 | 225 | 0.9 | 4.3 | 0.00 | 0.00 | 0.00 | 68 | 1006.5 |
| 20260505061505 | 74 | 125 | 1.7 | 3.5 | 0.00 | 0.00 | 0.00 | 67 | 1006.3 |
| 20260505060005 | 74 | 166 | 1.7 | 4.3 | 0.00 | 0.00 | 0.00 | 66 | 1006.4 |
| 20260505054505 | 74 | 157 | 1.7 | 4.3 | 0.00 | 0.00 | 0.00 | 64 | 1006.5 |
| 20260505053004 | 75 | 194 | 0.9 | 3.5 | 0.00 | 0.00 | 0.00 | 63 | 1006.5 |
| 20260505051505 | 75 | 235 | 1.7 | 3.5 | 0.00 | 0.00 | 0.00 | 62 | 1006.5 |
| 20260505041504 | 76 | 238 | 0.9 | 3.5 | 0.00 | 0.00 | 0.00 | 58 | 1006.3 |
| 20260505040011 | 77 | 133 | 1.7 | 4.3 | 0.00 | 0.00 | 0.00 | 57 | 1006.3 |
| 20260505034506 | 77 | 232 | 1.7 | 7.0 | 0.00 | 0.00 | 0.00 | 55 | 1006.1 |
| 20260505033008 | 78 | 145 | 1.7 | 5.2 | 0.00 | 0.00 | 0.00 | 54 | 1006.0 |
| 20260505031504 | 78 | 199 | 1.7 | 3.5 | 0.00 | 0.00 | 0.00 | 53 | 1005.9 |
| 20260505030008 | 79 | 231 | 1.7 | 4.3 | 0.00 | 0.00 | 0.00 | 52 | 1005.8 |
| 20260505024526 | 80 | 130 | 0.9 | 4.3 | 0.00 | 0.00 | 0.00 | 50 | 1005.6 |
| 20260505023006 | 80 | 188 | 1.7 | 5.2 | 0.00 | 0.00 | 0.00 | 49 | 1005.3 |
| 20260505021508 | 81 | 226 | 1.7 | 5.2 | 0.00 | 0.00 | 0.00 | 48 | 1005.2 |
| 20260505020010 | 81 | 247 | 1.7 | 5.2 | 0.00 | 0.00 | 0.00 | 47 | 1005.2 |
| 20260505014508 | 82 | 253 | 3.5 | 7.0 | 0.00 | 0.00 | 0.00 | 47 | 1005.2 |
| 20260505013017 | 83 | 172 | 2.6 | 7.0 | 0.00 | 0.00 | 0.00 | 46 | 1005.0 |
| 20260505011511 | 83 | 226 | 1.7 | 7.0 | 0.00 | 0.00 | 0.00 | 45 | 1005.0 |
| 20260505010009 | 84 | 167 | 1.7 | 4.3 | 0.00 | 0.00 | 0.00 | 44 | 1005.0 |
| 20260505004515 | 85 | 172 | 1.7 | 6.1 | 0.00 | 0.00 | 0.00 | 43 | 1004.8 |
| 20260505003014 | 86 | 165 | 1.7 | 6.1 | 0.00 | 0.00 | 0.00 | 41 | 1004.8 |
| 20260505001510 | 86 | 195 | 2.6 | 8.7 | 0.00 | 0.00 | 0.00 | 40 | 1004.8 |
| 20260505000027 | 87 | 167 | 2.6 | 5.2 | 0.00 | 0.00 | 0.00 | 40 | 1005.0 |